Home   Weather   Mudgee   Past weeks

Flag for Australia Past Weather in Mudgee, New South Wales, Australia — Yesterday and Last 2 Weeks

Now
62 °F

Overcast.


Feels Like: 62 °F
Forecast: 46 / 61 °F
Wind: 8 mph from North

Location: Mudgee Aws

Current Time: Apr 25, 2017 at 8:38:30 pm

Latest Report: Apr 25, 2017 at 6:00 pm


Visibility: N/A

Pressure: 29.85 "Hg

Humidity: 98%

Dew Point: 61 °F

Location of MudgeeLocation

Past Weather in Mudgee — Graph

°F

Mudgee Temperature Yesterday

Maximum temperature yesterday: 74 °F (at 2:00 pm)
Minimum temperature yesterday: 47 °F (at 6:00 am)
Average temperature yesterday: 61 °F

High & Low Weather Summary for the Past Weeks

 TemperatureHumidityPressure
High75 °F (Apr 18, 3:00 pm)99% (Apr 23, 8:00 am)30.43 "Hg (Apr 23, 8:00 am)
Low41 °F (Apr 15, 6:00 am)27% (Apr 14, 3:00 pm)29.85 "Hg (Apr 25, 6:00 pm)
Average59 °F75%30.19 "Hg
* Reported Apr 10 6:00 pm — Apr 25 6:00 pm, Mudgee, Weather by CustomWeather, © 2017

Note: Actual official high and low records may vary slightly from our data, if they occured in-between our weather recording intervals... More about our weather records

Advertising

Mudgee Weather History for the Previous 24 Hours

Scroll right to see more
 ConditionsComfort  
Time TempWeatherWind HumidityBarometerVisibility
6:00 pm
Tue, Apr 25
62 °FOvercast.8 mph98%29.85 "HgN/A
5:00 pm63 °FMild.9 mph96%29.86 "HgN/A
3:00 pm64 °FRain showers. Overcast.7 mph95%29.88 "HgN/A
2:00 pm64 °FMild.7 mph90%29.89 "HgN/A
12:00 pm73 °FOvercast.17 mph53%29.90 "HgN/A
11:00 am72 °FMild.17 mph55%29.94 "HgN/A
9:00 am64 °FOvercast.2 mph77%29.99 "HgN/A
8:00 am58 °FCool.5 mph96%30.00 "HgN/A
6:00 am56 °FOvercast.No wind98%30.00 "HgN/A
5:00 am56 °FCool.No wind98%29.98 "HgN/A
3:00 am57 °FOvercast.No wind98%30.00 "HgN/A
2:00 am57 °FCool.No wind94%30.03 "HgN/A
12:00 am60 °FOvercast.5 mph85%30.07 "HgN/A
11:00 pm
Mon, Apr 24
62 °FCool.3 mph82%30.08 "HgN/A
9:00 pm60 °FOvercast.8 mph87%30.11 "HgN/A
8:00 pm63 °FMild.5 mph80%30.10 "HgN/A
Weather by CustomWeather, © 2017

See weather overviewHow to use our weather pages